Hourly Data Report for March 01, 2020

All times are specified in Local Standard Time (LST). Add 1 hour to adjust for Daylight Saving Time where and when it is observed.

OTTAWA INTL A
ONTARIO
Current Station Operator: NAVCAN

45°19'00.000" N
75°40'00.000" W
114.90 m
6106001
71628
YOW

Download Data

Hourly Data (March 2020)
Hourly Data Report for March 1, 2020
TIME Temp Definition
°C
Dew Point Definition
°C
Rel Hum Definition
%
Wind Dir Definition
10's deg

Wind Spd Definition
km/h
Visibility Definition
km
Stn Press Definition
kPa
Hmdx Definition


Wind Chill Definition


Weather Definition


00:00 -13.1 -15.7 81 28 12 24.1 100.29   -20 LegendNANA
01:00 -15.9 -17.8 85 25 10 24.1 100.31   -22 Mainly Clear
02:00 -14.0 -16.3 83 28 8 24.1 100.35   -19 LegendNANA
03:00 -13.6 -15.8 84 23 6 24.1 100.34   -18 LegendNANA
04:00 -13.9 -16.2 83 24 5 24.1 100.39   -17 Mostly Cloudy
05:00 -13.7 -15.8 84 22 5 24.1 100.42   -17 LegendNANA
06:00 -14.4 -16.4 85 22 5 24.1 100.47   -18 LegendNANA
07:00 -16.7 -18.6 86 20 6 24.1 100.52   -21 Clear
08:00 -15.1 -16.9 86 22 4 24.1 100.59   -18 LegendNANA
09:00 -12.8 -14.6 87 25 9 24.1 100.62   -18 LegendNANA
10:00 -10.0 -13.6 76 31 13 24.1 100.65   -16 Clear
11:00 -8.4 -13.6 66 31 10 24.1 100.62   -13 LegendNANA
12:00 -7.2 -14.3 57 25 15 24.1 100.60   -13 LegendNANA
13:00 -6.2 -14.4 53 24 14 24.1 100.56   -12 Clear
14:00 -5.7 -15.6 46 24 17 24.1 100.51   -12 LegendNANA
15:00 -5.2 -15.4 45 25 19 24.1 100.51   -12 LegendNANA
16:00 -4.8 -15.5 43 26 7 24.1 100.48   -8 Clear
17:00 -5.2 -14.9 47 0 1 24.1 100.49   -6 LegendNANA
18:00 -6.1 -13.4 57 10 8 24.1 100.46   -10 LegendNANA
19:00 -8.2 -13.8 64 11 15 24.1 100.44   -15 Mostly Cloudy
20:00 -7.6 -13.1 65 10 15 24.1 100.39   -14 LegendNANA
21:00 -7.9 -13.4 65 11 14 24.1 100.34   -14 LegendNANA
22:00 -6.4 -12.1 64 11 17 24.1 100.23   -13 Cloudy
23:00 -6.4 -11.8 66 11 7 12.9 100.23   -10 Snow Showers

Notes on Data Quality.

Legend

  • E = Estimated
  • M = Missing
  • NA = Not Available*
  • [empty] = Indicates an unobserved value
Date modified: